[[{"header":{"parameterUnit":"m.s-1","parameterCategory":1,"la1":30.2991,"la2":30.254,"lo1":-89.0895,"lo2":-89.0444,"dy":0.0017,"dx":0.0017,"nx":28,"ny":28,"refTime":"2024-07-15T21:00:00:Z","depth":0,"parameterNumber":2,"parameterNumberName":"U-component_of_WINDS"},"data":[0,0,0,0,0,0,0,0,0,0,0,0,0,0,0,0,0,0,0,0,0,0,0,0,0,0,0,0,0,0,0,0,0,0,0,0,0,0,0,0,0,0,0,0,0,0,0,0,0,0,0,0,0,0,0,0,0,0,0.6916,0.6918,0,0.706,0.7062,0.7064,0.7148,0.7149,0.7149,0.715,0.7299,0.7302,0.7306,0,0,0,0,0,0,0,0,0,0,0,0,0,0.6714,0.6717,0.6916,0.6918,0.692,0.706,0.7062,0.7064,0.7148,0.7149,0.7149,0.715,0.7298,0.7302,0.7306,0,0,0,0,0,0,0,0,0,0,0,0,0,0.6824,0.6718,0.6916,0.6979,0.6986,0.706,0.7062,0.7065,0.7148,0.7149,0.7149,0.715,0.7296,0.7302,0.7307,0.733,0,0,0.7324,0.7326,0,0,0,0,0,0,0,0,0.6818,0.6832,0.6968,0.6974,0.6982,0.7087,0.7046,0.7154,0.7148,0.7087,0.715,0.715,0.7228,0.7239,0.7265,0.7337,0.7343,0.7324,0.7327,0.733,0.7331,0,0,0,0,0,0,0,0.681,0.6826,0.6973,0.6969,0.6978,0.7,0.7016,0.7067,0.7153,0.7092,0.7099,0.7114,0.7232,0.726,0.7269,0.7346,0.7324,0.7329,0.7332,0.7334,0.7442,0.7442,0,0,0,0,0,0,0.6792,0.6819,0.6969,0.6977,0.69,0.7003,0.7021,0.7053,0.7152,0.7168,0.7114,0.7118,0.725,0.7263,0.7275,0.7307,0.733,0.7335,0.7338,0.7443,0.7442,0.7442,0,0,0,0,0,0,0.6788,0.6805,0.6963,0.69,0.6922,0.7006,0.7041,0.7055,0.7083,0.7169,0.7185,0.7126,0.7251,0.7267,0.7315,0.7314,0.7337,0.7342,0.7443,0.7443,0.7442,0.7372,0,0,0,0,0,0,0.6782,0.6803,0.6812,0.69,0.6925,0.7,0.7041,0.7058,0.7092,0.7099,0.7184,0.7199,0.7253,0.7307,0.7321,0.7322,0.7347,0.7444,0.7443,0.7442,0.7375,0.737,0.7365,0,0,0,0,0,0.6774,0.6788,0.6812,0.683,0.6938,0.7,0.7014,0.7075,0.7091,0.7102,0.7157,0.7196,0.7312,0.7311,0.7327,0.733,0.7444,0.7443,0.7442,0.7378,0.7371,0.7365,0,0,0,0,0,0,0.6699,0.68,0.6829,0.6871,0.6926,0.7014,0.7029,0.7066,0.7118,0.7123,0.7197,0.7215,0.7256,0.7298,0.7295,0.7357,0.7382,0.7385,0.7327,0.7322,0.7316,0.7305,0.7351,0,0,0,0,0,0.6687,0.6728,0.6815,0.6844,0.687,0.6944,0.6973,0.7015,0.7076,0.71,0.7159,0.7216,0.7265,0.7296,0.7346,0.7382,0.7401,0.7392,0.7386,0.7382,0.7383,0.7403,0.74,0.7439,0.7439,0.7439,0,0,0.6663,0.6724,0.6745,0.683,0.6878,0.6918,0.6963,0.7005,0.7036,0.7107,0.7155,0.72,0.7269,0.731,0.7332,0.7347,0.7376,0.7381,0.7376,0.738,0.7402,0.7398,0.7395,0.7438,0.7438,0.7438,0,0,0.664,0.669,0.6719,0.6766,0.6837,0.6886,0.6893,0.6976,0.7008,0.7057,0.711,0.7149,0.7232,0.7278,0.7313,0.7306,0.7344,0.7321,0.7292,0.7312,0.7309,0.7306,0.7303,0.7301,0.7321,0.7321,0.7321,0,0.6601,0.6665,0.6729,0.6768,0.6803,0.6868,0.6897,0.6939,0.7023,0.7046,0.7062,0.7167,0.7218,0.727,0.7268,0.7295,0.7304,0.7311,0.7304,0.7302,0.7301,0.7298,0.7297,0.7318,0.7318,0.7319,0.7319,0,0.6613,0.6656,0.6671,0.6749,0.6787,0.682,0.689,0.6919,0.6958,0.7005,0.7055,0.7118,0.7181,0.7197,0.7236,0.7255,0.7262,0.729,0.7317,0.7293,0.7291,0.7291,0.7313,0.7314,0.7315,0.7316,0,0,0.6546,0.6659,0.6664,0.6699,0.6782,0.6817,0.6853,0.6915,0.6938,0.6994,0.7026,0.7094,0.712,0.7159,0.7203,0.722,0.7209,0.7246,0.7249,0.7236,0.7233,0.721,0.7208,0.7235,0.7235,0.7235,0.7226,0,0.6535,0.6602,0.6661,0.6707,0.6747,0.6809,0.684,0.6894,0.694,0.698,0.7031,0.7077,0.7109,0.7132,0.7152,0.7206,0.7209,0.7208,0.7265,0.7266,0.7244,0.7207,0.7184,0.7172,0.7226,0.7226,0.7226,0,0.653,0.6582,0.6631,0.6709,0.6728,0.6755,0.6815,0.6854,0.6916,0.6948,0.699,0.7037,0.7078,0.7101,0.7158,0.7155,0.7182,0.7212,0.7213,0.722,0.7244,0.7212,0.717,0.7168,0.7226,0.7226,0.7226,0,0.6474,0.6557,0.6597,0.6626,0.6718,0.6735,0.6775,0.6838,0.687,0.6923,0.6945,0.7002,0.7033,0.7076,0.7136,0.7147,0.7186,0.7214,0.7213,0.7211,0.7217,0.7216,0.7178,0.7236,0.7236,0.7236,0.7236,0,0.6454,0.6481,0.6573,0.6597,0.663,0.6697,0.6727,0.6772,0.6828,0.6862,0.6919,0.695,0.7028,0.7068,0.7116,0.7155,0.7169,0.7195,0.7207,0.7189,0.7185,0.7207,0.7209,0.7236,0.7236,0.7236,0.7236,0,0.6397,0.6459,0.6507,0.659,0.6611,0.6631,0.6702,0.6728,0.6777,0.6819,0.6833,0.6908,0.6959,0.7023,0.7094,0.7126,0.7159,0.7178,0.7137,0.7144,0.7138,0.7137,0.7111,0.7111,0.717,0.717,0.7169,0,0.6379,0.6401,0.6486,0.6513,0.655,0.6593,0.6626,0.6693,0.6725,0.6797,0.6814,0.6868,0.6915,0.6992,0.7054,0.7108,0.7128,0.7116,0.7137,0.7117,0.7126,0.7123,0.7125,0.711,0.7109,0.7108,0.7107,0,0.634,0.6369,0.6415,0.6471,0.6508,0.6556,0.6606,0.6625,0.6702,0.6735,0.6787,0.6823,0.6894,0.6947,0.7009,0.705,0.7091,0.71,0.7103,0.7084,0.7058,0.707,0.7121,0.71,0.7101,0.7102,0.7102,0.7102,0.6301,0.6323,0.6386,0.6435,0.6479,0.6524,0.6552,0.6604,0.6647,0.671,0.6748,0.6797,0.6859,0.6946,0.6985,0.7024,0.704,0.7044,0.7044,0.7044,0.7037,0.7053,0.7036,0.7036,0.7037,0.7037,0.7037,0,0.6264,0.6307,0.6351,0.6418,0.6456,0.6492,0.6549,0.6578,0.6621,0.6674,0.6719,0.6777,0.6828,0.6893,0.6949,0.6968,0.6988,0.698,0.6979,0.6987,0.7021,0.7012,0.6963,0.6963,0.6963,0.6963,0.6963,0.6963,0.6248,0.6287,0.6324,0.6386,0.6429,0.6478,0.6507,0.6549,0.6592,0.6654,0.6696,0.6739,0.6797,0.6857,0.6905,0.6923,0.694,0.6926,0.6949,0.6979,0.6985,0.6991,0.6984,0.6929,0.6929,0.6912,0.6912,0.6912]},{"header":{"parameterUnit":"m.s-1","parameterCategory":1,"la1":30.2991,"la2":30.254,"lo1":-89.0895,"lo2":-89.0444,"dy":0.0017,"dx":0.0017,"nx":28,"ny":28,"refTime":"2024-07-15T21:00:00:Z","depth":0,"parameterNumber":3,"parameterNumberName":"V-component_of_WINDS"},"data":[0,0,0,0,0,0,0,0,0,0,0,0,0,0,0,0,0,0,0,0,0,0,0,0,0,0,0,0,0,0,0,0,0,0,0,0,0,0,0,0,0,0,0,0,0,0,0,0,0,0,0,0,0,0,0,0,0,0,4.2519,4.2519,0,4.2522,4.2523,4.2523,4.2523,4.2523,4.2523,4.2523,4.2525,4.2525,4.2525,0,0,0,0,0,0,0,0,0,0,0,0,0,4.251,4.251,4.2519,4.2519,4.2519,4.2522,4.2523,4.2523,4.2523,4.2523,4.2523,4.2523,4.2525,4.2525,4.2525,0,0,0,0,0,0,0,0,0,0,0,0,0,4.2514,4.251,4.2519,4.2519,4.252,4.2522,4.2523,4.2523,4.2523,4.2523,4.2523,4.2523,4.2525,4.2525,4.2525,4.2528,0,0,4.2526,4.2526,0,0,0,0,0,0,0,0,4.2513,4.2514,4.2519,4.2519,4.252,4.2522,4.252,4.2524,4.2523,4.2522,4.2523,4.2523,4.2524,4.2524,4.2525,4.2528,4.2528,4.2526,4.2526,4.2526,4.2526,0,0,0,0,0,0,0,4.2513,4.2514,4.252,4.2519,4.2519,4.2519,4.2519,4.2521,4.2523,4.2522,4.2522,4.2522,4.2524,4.2525,4.2525,4.2528,4.2526,4.2526,4.2526,4.2526,4.2531,4.2531,0,0,0,0,0,0,4.2513,4.2514,4.252,4.252,4.2516,4.2519,4.252,4.2521,4.2523,4.2523,4.2522,4.2522,4.2525,4.2525,4.2525,4.2527,4.2526,4.2526,4.2526,4.2531,4.2531,4.2531,0,0,0,0,0,0,4.2513,4.2514,4.252,4.2517,4.2518,4.2519,4.2521,4.2521,4.2522,4.2524,4.2524,4.2523,4.2525,4.2525,4.2527,4.2527,4.2526,4.2526,4.2531,4.2531,4.2531,4.2531,0,0,0,0,0,0,4.2513,4.2513,4.2515,4.2517,4.2518,4.2522,4.2521,4.2522,4.2523,4.2523,4.2524,4.2524,4.2525,4.2527,4.2527,4.2527,4.2527,4.2531,4.2531,4.2531,4.2531,4.2531,4.2531,0,0,0,0,0,4.2512,4.2515,4.2515,4.2516,4.252,4.2522,4.2522,4.2523,4.2523,4.2524,4.2524,4.2524,4.2527,4.2527,4.2527,4.2528,4.2531,4.2531,4.2531,4.2531,4.2531,4.2531,0,0,0,0,0,0,4.2513,4.2515,4.2515,4.2519,4.252,4.2522,4.2524,4.2524,4.2525,4.2525,4.2525,4.2525,4.2527,4.2528,4.2527,4.2529,4.2529,4.2529,4.2529,4.2529,4.2529,4.2529,4.2527,0,0,0,0,0,4.2513,4.2515,4.2517,4.252,4.2521,4.2522,4.2523,4.2523,4.2525,4.2525,4.2526,4.2527,4.2528,4.2528,4.2529,4.2531,4.2531,4.2532,4.2532,4.2532,4.2532,4.2532,4.2532,4.2531,4.2531,4.2531,0,0,4.2514,4.2516,4.2517,4.252,4.2521,4.2523,4.2523,4.2524,4.2525,4.2525,4.2527,4.2527,4.2528,4.253,4.253,4.253,4.2532,4.2532,4.2532,4.2532,4.2532,4.2532,4.2532,4.2531,4.2531,4.2531,0,0,4.2517,4.2519,4.2521,4.2522,4.2524,4.2524,4.2525,4.2526,4.2527,4.2528,4.2528,4.2529,4.2531,4.2531,4.2531,4.2533,4.2532,4.2533,4.2534,4.2533,4.2533,4.2534,4.2533,4.2533,4.2533,4.2533,4.2533,0,4.2518,4.2521,4.2522,4.2524,4.2525,4.2525,4.2526,4.2527,4.2529,4.2529,4.2529,4.253,4.2531,4.2532,4.2532,4.2533,4.2533,4.2533,4.2533,4.2534,4.2534,4.2533,4.2533,4.2533,4.2533,4.2533,4.2533,0,4.2522,4.2524,4.2525,4.2527,4.2528,4.2529,4.253,4.2531,4.2531,4.2531,4.2532,4.2532,4.2533,4.2533,4.2533,4.2534,4.2534,4.2534,4.2533,4.2534,4.2533,4.2533,4.2533,4.2533,4.2533,4.2533,0,0,4.2526,4.2527,4.2528,4.2528,4.2529,4.253,4.2531,4.2532,4.2532,4.2533,4.2534,4.2535,4.2534,4.2535,4.2535,4.2535,4.2535,4.2534,4.2534,4.2534,4.2534,4.2534,4.2534,4.2534,4.2534,4.2534,4.2534,0,4.2528,4.2531,4.2531,4.2533,4.2534,4.2533,4.2534,4.2535,4.2535,4.2535,4.2535,4.2535,4.2535,4.2535,4.2535,4.2535,4.2535,4.2535,4.2534,4.2534,4.2534,4.2534,4.2534,4.2534,4.2534,4.2534,4.2534,0,4.2532,4.2532,4.2534,4.2535,4.2535,4.2536,4.2536,4.2537,4.2537,4.2537,4.2536,4.2536,4.2536,4.2536,4.2535,4.2535,4.2535,4.2535,4.2535,4.2534,4.2534,4.2534,4.2534,4.2534,4.2534,4.2534,4.2534,0,4.2533,4.2535,4.2536,4.2536,4.2537,4.2537,4.2537,4.2537,4.2537,4.2537,4.2537,4.2537,4.2537,4.2536,4.2536,4.2535,4.2535,4.2535,4.2534,4.2534,4.2534,4.2534,4.2534,4.2534,4.2534,4.2534,4.2534,0,4.2536,4.2537,4.2537,4.2537,4.2538,4.2538,4.2539,4.2539,4.2538,4.2538,4.2538,4.2538,4.2537,4.2536,4.2536,4.2535,4.2535,4.2534,4.2534,4.2534,4.2534,4.2534,4.2534,4.2534,4.2534,4.2534,4.2534,0,4.2538,4.2538,4.2539,4.2539,4.2539,4.254,4.2539,4.2539,4.2539,4.2539,4.2539,4.2538,4.2538,4.2537,4.2536,4.2535,4.2535,4.2534,4.2535,4.2534,4.2534,4.2534,4.2534,4.2533,4.2534,4.2534,4.2534,0,4.254,4.254,4.254,4.254,4.254,4.2541,4.2541,4.254,4.254,4.2539,4.2539,4.2539,4.2538,4.2537,4.2536,4.2535,4.2534,4.2534,4.2534,4.2534,4.2534,4.2534,4.2533,4.2534,4.2534,4.2534,4.2534,0,4.2542,4.2542,4.2542,4.2542,4.2542,4.2542,4.2542,4.2542,4.2541,4.254,4.254,4.2539,4.2538,4.2537,4.2536,4.2535,4.2534,4.2534,4.2534,4.2534,4.2534,4.2534,4.2534,4.2534,4.2534,4.2534,4.2534,4.2534,4.2543,4.2544,4.2543,4.2543,4.2543,4.2543,4.2543,4.2542,4.2542,4.2541,4.254,4.254,4.2538,4.2537,4.2536,4.2535,4.2534,4.2534,4.2534,4.2534,4.2534,4.2534,4.2534,4.2534,4.2534,4.2534,4.2534,0,4.2545,4.2545,4.2545,4.2545,4.2544,4.2544,4.2543,4.2543,4.2542,4.2541,4.2541,4.2539,4.2538,4.2537,4.2535,4.2534,4.2534,4.2534,4.2534,4.2533,4.2534,4.2534,4.2534,4.2534,4.2534,4.2534,4.2534,4.2534,4.2546,4.2546,4.2546,4.2545,4.2545,4.2544,4.2544,4.2543,4.2542,4.2541,4.254,4.2539,4.2538,4.2536,4.2535,4.2534,4.2533,4.2533,4.2533,4.2534,4.2534,4.2534,4.2534,4.2533,4.2533,4.2532,4.2532,4.2532]}]]